,,PressureMeas_1m,,PRMeasQMR101_1,,RHStat155_1m_1,,SRMeasQMS101R_1m,,TAStat155_1m_1,,GenWind_1,,GenWind_1,
2017-03-28, 07:00:07,VALID,919.346,VALID,0.0,VALID,98.6,VALID,6.928,VALID,19.615,VALID,236.0,VALID,0.286,
2017-03-28, 07:01:07,VALID,919.352,VALID,0.0,VALID,98.602,VALID,7.093,VALID,19.62,VALID,278.0,VALID,0.349,
2017-03-28, 07:02:07,VALID,919.367,VALID,0.0,VALID,98.6,VALID,7.374,VALID,19.638,VALID,291.0,VALID,0.595,
2017-03-28, 07:03:07,VALID,919.359,VALID,0.0,VALID,98.583,VALID,7.596,VALID,19.628,VALID,281.0,VALID,0.6,
2017-03-28, 07:04:07,VALID,919.366,VALID,0.0,VALID,98.553,VALID,7.948,VALID,19.604,VALID,264.0,VALID,0.208,
2017-03-28, 07:05:07,VALID,919.385,VALID,0.0,VALID,98.588,VALID,8.344,VALID,19.6,VALID,262.0,VALID,0.072,
2017-03-28, 07:06:07,VALID,919.411,VALID,0.0,VALID,98.576,VALID,8.618,VALID,19.598,VALID,262.0,VALID,0.016,
2017-03-28, 07:07:07,VALID,919.423,VALID,0.0,VALID,98.583,VALID,8.545,VALID,19.61,VALID,261.0,VALID,0.152,
2017-03-28, 07:08:07,VALID,919.447,VALID,0.0,VALID,98.617,VALID,8.172,VALID,19.608,VALID,257.0,VALID,0.303,
2017-03-28, 07:09:07,VALID,919.478,VALID,0.0,VALID,98.576,VALID,8.013,VALID,19.6,VALID,256.0,VALID,0.277,
2017-03-28, 07:10:07,VALID,919.496,VALID,0.0,VALID,98.583,VALID,8.32,VALID,19.602,VALID,256.0,VALID,0.175,
2017-03-28, 07:11:07,VALID,919.51,VALID,0.0,VALID,98.603,VALID,8.48,VALID,19.627,VALID,256.0,VALID,0.004,
2017-03-28, 07:12:07,VALID,919.528,VALID,0.0,VALID,98.616,VALID,8.828,VALID,19.658,VALID,256.0,VALID,0.0,
2017-03-28, 07:13:07,VALID,919.541,VALID,0.0,VALID,98.629,VALID,9.208,VALID,19.688,VALID,256.0,VALID,0.0,
2017-03-28, 07:14:07,VALID,919.555,VALID,0.0,VALID,98.632,VALID,9.613,VALID,19.7,VALID,256.0,VALID,0.0,
2017-03-28, 07:15:07,VALID,919.554,VALID,0.0,VALID,98.623,VALID,9.94,VALID,19.71,VALID,256.0,VALID,0.0,
2017-03-28, 07:16:07,VALID,919.558,VALID,0.0,VALID,98.624,VALID,10.247,VALID,19.718,VALID,256.0,VALID,0.026,
2017-03-28, 07:17:07,VALID,919.567,VALID,0.0,VALID,98.609,VALID,10.746,VALID,19.711,VALID,256.0,VALID,0.129,
2017-03-28, 07:18:07,VALID,919.57,VALID,0.0,VALID,98.613,VALID,11.254,VALID,19.699,VALID,255.0,VALID,0.266,
2017-03-28, 07:19:07,VALID,919.572,VALID,0.0,VALID,98.607,VALID,11.595,VALID,19.683,VALID,282.0,VALID,0.12,
2017-03-28, 07:20:07,VALID,919.591,VALID,0.0,VALID,98.586,VALID,12.182,VALID,19.679,VALID,282.0,VALID,0.0,
2017-03-28, 07:21:07,VALID,919.598,VALID,0.0,VALID,98.611,VALID,12.844,VALID,19.691,VALID,276.0,VALID,0.001,
2017-03-28, 07:22:07,VALID,919.604,VALID,0.0,VALID,98.598,VALID,13.319,VALID,19.688,VALID,264.0,VALID,0.111,
2017-03-28, 07:23:07,VALID,919.623,VALID,0.0,VALID,98.585,VALID,13.85,VALID,19.666,VALID,261.0,VALID,0.063,
2017-03-28, 07:24:07,VALID,919.635,VALID,0.0,VALID,98.625,VALID,14.802,VALID,19.685,VALID,254.0,VALID,0.103,
2017-03-28, 07:25:07,VALID,919.642,VALID,0.0,VALID,98.601,VALID,15.385,VALID,19.675,VALID,253.0,VALID,0.174,
2017-03-28, 07:26:07,VALID,919.648,VALID,0.0,VALID,98.581,VALID,15.513,VALID,19.663,VALID,253.0,VALID,0.237,
2017-03-28, 07:27:07,VALID,919.634,VALID,0.0,VALID,98.575,VALID,15.114,VALID,19.647,VALID,253.0,VALID,0.205,
2017-03-28, 07:28:07,VALID,919.642,VALID,0.0,VALID,98.6,VALID,15.815,VALID,19.656,VALID,254.0,VALID,0.056,
2017-03-28, 07:29:07,VALID,919.646,VALID,0.0,VALID,98.637,VALID,17.148,VALID,19.681,VALID,254.0,VALID,0.0,
2017-03-28, 07:30:07,VALID,919.65,VALID,0.0,VALID,98.65,VALID,17.648,VALID,19.717,VALID,254.0,VALID,0.096,
2017-03-28, 07:31:07,VALID,919.664,VALID,0.0,VALID,98.622,VALID,17.777,VALID,19.724,VALID,254.0,VALID,0.025,
2017-03-28, 07:32:07,VALID,919.672,VALID,0.0,VALID,98.638,VALID,18.07,VALID,19.732,VALID,253.0,VALID,0.023,
2017-03-28, 07:33:07,VALID,919.689,VALID,0.0,VALID,98.608,VALID,18.792,VALID,19.728,VALID,246.0,VALID,0.275,
2017-03-28, 07:34:07,VALID,919.695,VALID,0.0,VALID,98.586,VALID,18.722,VALID,19.689,VALID,246.0,VALID,0.246,
2017-03-28, 07:35:07,VALID,919.726,VALID,0.0,VALID,98.604,VALID,18.927,VALID,19.691,VALID,246.0,VALID,0.15,
2017-03-28, 07:36:07,VALID,919.75,VALID,0.0,VALID,98.622,VALID,18.814,VALID,19.707,VALID,245.0,VALID,0.022,
2017-03-28, 07:37:07,VALID,919.779,VALID,0.0,VALID,98.624,VALID,18.894,VALID,19.726,VALID,210.0,VALID,0.015,
2017-03-28, 07:38:07,VALID,919.803,VALID,0.0,VALID,98.646,VALID,18.696,VALID,19.744,VALID,178.0,VALID,0.093,
2017-03-28, 07:39:07,VALID,919.82,VALID,0.0,VALID,98.629,VALID,17.895,VALID,19.756,VALID,165.0,VALID,0.004,
2017-03-28, 07:40:07,VALID,919.851,VALID,0.0,VALID,98.632,VALID,17.135,VALID,19.781,VALID,165.0,VALID,0.08,
2017-03-28, 07:41:07,VALID,919.851,VALID,0.0,VALID,98.656,VALID,16.73,VALID,19.812,VALID,165.0,VALID,0.01,
2017-03-28, 07:42:07,VALID,919.879,VALID,0.0,VALID,98.649,VALID,16.618,VALID,19.82,VALID,212.0,VALID,0.048,
2017-03-28, 07:43:07,VALID,919.896,VALID,0.0,VALID,98.622,VALID,16.831,VALID,19.821,VALID,239.0,VALID,0.028,
2017-03-28, 07:44:07,VALID,919.917,VALID,0.0,VALID,98.633,VALID,17.147,VALID,19.833,VALID,310.0,VALID,0.278,
2017-03-28, 07:45:07,VALID,919.929,VALID,0.0,VALID,98.617,VALID,17.452,VALID,19.809,VALID,350.0,VALID,0.563,
2017-03-28, 07:46:07,VALID,919.951,VALID,0.0,VALID,98.591,VALID,17.769,VALID,19.777,VALID,352.0,VALID,0.479,
2017-03-28, 07:47:07,VALID,919.972,VALID,0.0,VALID,98.597,VALID,18.072,VALID,19.766,VALID,3.0,VALID,0.276,
2017-03-28, 07:48:07,VALID,919.972,VALID,0.0,VALID,98.614,VALID,19.094,VALID,19.778,VALID,356.0,VALID,0.107,
2017-03-28, 07:49:07,VALID,920.005,VALID,0.0,VALID,98.631,VALID,20.453,VALID,19.804,VALID,1.0,VALID,0.238,
2017-03-28, 07:50:07,VALID,920.007,VALID,0.0,VALID,98.616,VALID,21.344,VALID,19.793,VALID,8.0,VALID,0.322,
2017-03-28, 07:51:07,VALID,920.022,VALID,0.0,VALID,98.604,VALID,21.791,VALID,19.758,VALID,8.0,VALID,0.489,
2017-03-28, 07:52:07,VALID,920.04,VALID,0.0,VALID,98.601,VALID,22.474,VALID,19.755,VALID,2.0,VALID,0.389,
2017-03-28, 07:53:07,VALID,920.055,VALID,0.0,VALID,98.643,VALID,23.356,VALID,19.779,VALID,340.0,VALID,0.308,
2017-03-28, 07:54:07,VALID,920.063,VALID,0.0,VALID,98.639,VALID,24.549,VALID,19.805,VALID,339.0,VALID,0.234,
2017-03-28, 07:55:07,VALID,920.09,VALID,0.0,VALID,98.616,VALID,25.39,VALID,19.795,VALID,321.0,VALID,0.188,
2017-03-28, 07:56:07,VALID,920.097,VALID,0.0,VALID,98.619,VALID,25.847,VALID,19.785,VALID,303.0,VALID,0.0,
2017-03-28, 07:57:07,VALID,920.108,VALID,0.0,VALID,98.611,VALID,25.505,VALID,19.798,VALID,303.0,VALID,0.027,
2017-03-28, 07:58:07,VALID,920.127,VALID,0.0,VALID,98.612,VALID,25.153,VALID,19.794,VALID,304.0,VALID,0.03,
2017-03-28, 07:59:07,VALID,920.145,VALID,0.0,VALID,98.627,VALID,24.68,VALID,19.817,VALID,312.0,VALID,0.018,
2017-03-28, 08:00:07,VALID,920.152,VALID,0.0,VALID,98.651,VALID,24.451,VALID,19.854,VALID,312.0,VALID,0.004,
2017-03-28, 08:01:07,VALID,920.177,VALID,0.0,VALID,98.652,VALID,25.1,VALID,19.884,VALID,312.0,VALID,0.001,
2017-03-28, 08:02:07,VALID,920.21,VALID,0.0,VALID,98.637,VALID,25.997,VALID,19.901,VALID,312.0,VALID,0.0,
2017-03-28, 08:03:07,VALID,920.238,VALID,0.0,VALID,98.647,VALID,26.02,VALID,19.927,VALID,312.0,VALID,0.0,
2017-03-28, 08:04:07,VALID,920.252,VALID,0.0,VALID,98.656,VALID,25.837,VALID,19.954,VALID,11.0,VALID,0.217,
2017-03-28, 08:05:07,VALID,920.272,VALID,0.0,VALID,98.657,VALID,26.165,VALID,19.97,VALID,36.0,VALID,0.539,
2017-03-28, 08:06:07,VALID,920.294,VALID,0.0,VALID,98.616,VALID,26.823,VALID,19.93,VALID,38.0,VALID,0.439,
2017-03-28, 08:07:07,VALID,920.32,VALID,0.0,VALID,98.633,VALID,27.193,VALID,19.927,VALID,47.0,VALID,0.662,
2017-03-28, 08:08:07,VALID,920.346,VALID,0.0,VALID,98.636,VALID,28.607,VALID,19.908,VALID,22.0,VALID,0.45,
2017-03-28, 08:09:07,VALID,920.371,VALID,0.0,VALID,98.595,VALID,29.504,VALID,19.867,VALID,20.0,VALID,0.634,
2017-03-28, 08:10:07,VALID,920.387,VALID,0.0,VALID,98.583,VALID,29.591,VALID,19.852,VALID,38.0,VALID,0.333,
2017-03-28, 08:11:07,VALID,920.401,VALID,0.0,VALID,98.633,VALID,28.57,VALID,19.885,VALID,39.0,VALID,0.232,
2017-03-28, 08:12:07,VALID,920.416,VALID,0.0,VALID,98.637,VALID,27.028,VALID,19.908,VALID,54.0,VALID,0.233,
2017-03-28, 08:13:07,VALID,920.415,VALID,0.0,VALID,98.638,VALID,26.066,VALID,19.927,VALID,56.0,VALID,0.382,
2017-03-28, 08:14:07,VALID,920.444,VALID,0.0,VALID,98.632,VALID,25.798,VALID,19.933,VALID,40.0,VALID,0.399,
2017-03-28, 08:15:07,VALID,920.471,VALID,0.0,VALID,98.634,VALID,27.534,VALID,19.955,VALID,55.0,VALID,0.614,
2017-03-28, 08:16:07,VALID,920.493,VALID,0.0,VALID,98.621,VALID,30.469,VALID,19.937,VALID,70.0,VALID,0.702,
2017-03-28, 08:17:07,VALID,920.495,VALID,0.0,VALID,98.599,VALID,32.92,VALID,19.865,VALID,58.0,VALID,0.986,
2017-03-28, 08:18:07,VALID,920.509,VALID,0.0,VALID,98.646,VALID,35.799,VALID,19.899,VALID,21.0,VALID,0.906,
2017-03-28, 08:19:07,VALID,920.519,VALID,0.0,VALID,98.61,VALID,39.854,VALID,19.88,VALID,16.0,VALID,1.23,
2017-03-28, 08:20:06,VALID,920.537,VALID,0.0,VALID,98.549,VALID,45.739,VALID,19.794,VALID,28.0,VALID,0.872,
2017-03-28, 08:21:06,VALID,920.546,VALID,0.0,VALID,98.597,VALID,47.156,VALID,19.823,VALID,30.0,VALID,0.69,
2017-03-28, 08:22:06,VALID,920.556,VALID,0.0,VALID,98.638,VALID,46.217,VALID,19.886,VALID,51.0,VALID,0.857,
2017-03-28, 08:23:06,VALID,920.583,VALID,0.0,VALID,98.611,VALID,48.886,VALID,19.87,VALID,47.0,VALID,0.667,
2017-03-28, 08:24:06,VALID,920.587,VALID,0.0,VALID,98.621,VALID,52.187,VALID,19.893,VALID,51.0,VALID,0.41,
2017-03-28, 08:25:06,VALID,920.58,VALID,0.0,VALID,98.661,VALID,54.197,VALID,19.949,VALID,65.0,VALID,0.377,
2017-03-28, 08:26:06,VALID,920.592,VALID,0.0,VALID,98.672,VALID,57.343,VALID,19.974,VALID,64.0,VALID,0.393,
2017-03-28, 08:27:06,VALID,920.587,VALID,0.0,VALID,98.642,VALID,61.314,VALID,19.972,VALID,62.0,VALID,0.582,
2017-03-28, 08:28:06,VALID,920.6,VALID,0.0,VALID,98.614,VALID,67.652,VALID,19.945,VALID,54.0,VALID,0.772,
2017-03-28, 08:29:06,VALID,920.609,VALID,0.0,VALID,98.616,VALID,72.856,VALID,19.895,VALID,35.0,VALID,0.574,
2017-03-28, 08:30:06,VALID,920.617,VALID,0.2,VALID,98.575,VALID,75.315,VALID,19.876,VALID,39.0,VALID,0.461,
2017-03-28, 08:31:06,VALID,920.631,VALID,0.0,VALID,98.628,VALID,76.141,VALID,19.932,VALID,53.0,VALID,0.424,
2017-03-28, 08:32:06,VALID,920.655,VALID,0.0,VALID,98.611,VALID,75.741,VALID,19.965,VALID,57.0,VALID,0.626,
2017-03-28, 08:33:06,VALID,920.666,VALID,0.0,VALID,98.622,VALID,74.385,VALID,19.978,VALID,52.0,VALID,0.598,
2017-03-28, 08:34:06,VALID,920.693,VALID,0.0,VALID,98.607,VALID,72.711,VALID,19.967,VALID,48.0,VALID,0.829,
2017-03-28, 08:35:06,VALID,920.703,VALID,0.0,VALID,98.574,VALID,71.066,VALID,19.909,VALID,46.0,VALID,0.577,
2017-03-28, 08:36:06,VALID,920.723,VALID,0.0,VALID,98.604,VALID,70.064,VALID,19.956,VALID,19.0,VALID,0.495,
2017-03-28, 08:37:06,VALID,920.761,VALID,0.0,VALID,98.64,VALID,69.337,VALID,20.024,VALID,351.0,VALID,0.704,
